PIMOHWEATHER Station Historical Data
Daily Summary for March 07, 2020 Units:  Metric    English   Both
Daily Weekly Monthly Yearly
  High: Low: Average:
Temperature: 35.0 °C 25.0 °C 29.4 °C
Dew Point: 26.0 °C 21.0 °C 23.8 °C
Humidity: 83% 60% 73%
Wind Speed: 18km/h 0km/h 8.3km/h
Wind Gust: 24km/h - -
Wind- - SSW
Pressure: 1012.5 hPa 1007.0 hPa -
Precipitation: 0.00 mm    
 
 
Tabular Data for March 07, 2020
Time Temperature Dew Point Pressure Wind Wind Speed Wind Gust Humidity Rainfall Rate (Hourly) solar
00:04 27.0 °C 22.0 °C 1011.6 hPa WNW 4 km/h 4 km/h 71% 0.00 mm 0.00 W/m2
00:09 27.0 °C 21.0 °C 1011.6 hPa NW 3 km/h 4 km/h 71% 0.00 mm 0.00 W/m2
00:14 27.0 °C 21.0 °C 1011.6 hPa North 4 km/h 4 km/h 71% 0.00 mm 0.00 W/m2
00:19 27.0 °C 21.0 °C 1011.4 hPa NW 5 km/h 12 km/h 71% 0.00 mm 0.00 W/m2
00:24 27.0 °C 21.0 °C 1011.3 hPa NW 6 km/h 8 km/h 71% 0.00 mm 0.00 W/m2
00:29 27.0 °C 21.0 °C 1011.4 hPa NW 2 km/h 4 km/h 71% 0.00 mm 0.00 W/m2
00:34 27.0 °C 21.0 °C 1011.2 hPa NNW 4 km/h 4 km/h 71% 0.00 mm 0.00 W/m2
00:39 27.0 °C 21.0 °C 1011.1 hPa NNE 4 km/h 4 km/h 71% 0.00 mm 0.00 W/m2
00:44 27.0 °C 21.0 °C 1011.1 hPa NW 1 km/h 4 km/h 71% 0.00 mm 0.00 W/m2
00:49 27.0 °C 21.0 °C 1011.0 hPa NW 5 km/h 8 km/h 71% 0.00 mm 0.00 W/m2
00:54 27.0 °C 21.0 °C 1011.0 hPa WNW 4 km/h 4 km/h 71% 0.00 mm 0.00 W/m2
00:59 27.0 °C 21.0 °C 1011.0 hPa North 3 km/h 4 km/h 71% 0.00 mm 0.00 W/m2
01:04 27.0 °C 21.0 °C 1010.9 hPa North 3 km/h 4 km/h 71% 0.00 mm 0.00 W/m2
01:09 27.0 °C 21.0 °C 1010.7 hPa North 4 km/h 4 km/h 72% 0.00 mm 0.00 W/m2
01:14 27.0 °C 21.0 °C 1010.7 hPa NNE 5 km/h 8 km/h 71% 0.00 mm 0.00 W/m2
01:19 27.0 °C 21.0 °C 1010.5 hPa NNW 4 km/h 8 km/h 71% 0.00 mm 0.00 W/m2
01:24 27.0 °C 21.0 °C 1010.5 hPa North 5 km/h 8 km/h 71% 0.00 mm 0.00 W/m2
01:29 27.0 °C 21.0 °C 1010.3 hPa NNW 5 km/h 8 km/h 71% 0.00 mm 0.00 W/m2
01:34 27.0 °C 21.0 °C 1010.3 hPa NW 5 km/h 8 km/h 71% 0.00 mm 0.00 W/m2
01:39 27.0 °C 21.0 °C 1010.2 hPa NNW 5 km/h 8 km/h 72% 0.00 mm 0.00 W/m2
01:44 27.0 °C 21.0 °C 1010.3 hPa North 5 km/h 8 km/h 72% 0.00 mm 0.00 W/m2
01:49 27.0 °C 21.0 °C 1010.1 hPa NW 5 km/h 8 km/h 73% 0.00 mm 0.00 W/m2
01:54 27.0 °C 21.0 °C 1010.1 hPa NNW 3 km/h 4 km/h 73% 0.00 mm 0.00 W/m2
01:59 26.0 °C 21.0 °C 1010.2 hPa Calm     74% 0.00 mm 0.00 W/m2
02:04 26.0 °C 21.0 °C 1010.1 hPa Calm     74% 0.00 mm 0.00 W/m2
02:09 26.0 °C 21.0 °C 1010.1 hPa Calm     74% 0.00 mm 0.00 W/m2
02:14 26.0 °C 21.0 °C 1010.1 hPa Calm     74% 0.00 mm 0.00 W/m2
02:19 26.0 °C 21.0 °C 1009.9 hPa Calm     74% 0.00 mm 0.00 W/m2
02:24 26.0 °C 21.0 °C 1010.1 hPa Calm     74% 0.00 mm 0.00 W/m2
02:29 26.0 °C 21.0 °C 1010.0 hPa Calm     74% 0.00 mm 0.00 W/m2
02:34 26.0 °C 21.0 °C 1009.8 hPa Calm   4 km/h 74% 0.00 mm 0.00 W/m2
02:39 27.0 °C 21.0 °C 1009.7 hPa NNE 1 km/h 4 km/h 73% 0.00 mm 0.00 W/m2
02:44 27.0 °C 21.0 °C 1009.8 hPa Calm   4 km/h 73% 0.00 mm 0.00 W/m2
02:49 27.0 °C 21.0 °C 1009.7 hPa Calm   4 km/h 73% 0.00 mm 0.00 W/m2
02:54 27.0 °C 21.0 °C 1009.6 hPa Calm   4 km/h 73% 0.00 mm 0.00 W/m2
02:59 26.0 °C 21.0 °C 1009.6 hPa Calm     73% 0.00 mm 0.00 W/m2
03:04 27.0 °C 22.0 °C 1009.5 hPa NE 2 km/h 4 km/h 74% 0.00 mm 0.00 W/m2
03:09 27.0 °C 22.0 °C 1009.6 hPa Calm     74% 0.00 mm 0.00 W/m2
03:14 26.0 °C 21.0 °C 1009.6 hPa NNE 3 km/h 4 km/h 74% 0.00 mm 0.00 W/m2
03:19 26.0 °C 21.0 °C 1009.6 hPa ENE 2 km/h 4 km/h 74% 0.00 mm 0.00 W/m2
03:24 26.0 °C 21.0 °C 1009.7 hPa NNE 1 km/h 4 km/h 74% 0.00 mm 0.00 W/m2
03:29 26.0 °C 22.0 °C 1009.7 hPa Calm     75% 0.00 mm 0.00 W/m2
03:34 26.0 °C 22.0 °C 1009.6 hPa Calm     75% 0.00 mm 0.00 W/m2
03:39 26.0 °C 21.0 °C 1009.6 hPa Calm     75% 0.00 mm 0.00 W/m2
03:44 26.0 °C 21.0 °C 1009.5 hPa NE 1 km/h 4 km/h 74% 0.00 mm 0.00 W/m2
03:49 26.0 °C 21.0 °C 1009.6 hPa Calm     75% 0.00 mm 0.00 W/m2
03:54 26.0 °C 21.0 °C 1009.6 hPa Calm     75% 0.00 mm 0.00 W/m2
03:59 26.0 °C 21.0 °C 1009.6 hPa Calm     75% 0.00 mm 0.00 W/m2
04:04 26.0 °C 21.0 °C 1009.6 hPa Calm     75% 0.00 mm 0.00 W/m2
04:09 26.0 °C 21.0 °C 1009.7 hPa Calm     75% 0.00 mm 0.00 W/m2
04:14 26.0 °C 21.0 °C 1009.6 hPa Calm     75% 0.00 mm 0.00 W/m2
04:19 26.0 °C 21.0 °C 1009.6 hPa North 4 km/h 4 km/h 75% 0.00 mm 0.00 W/m2
04:24 26.0 °C 21.0 °C 1009.6 hPa NW 4 km/h 4 km/h 75% 0.00 mm 0.00 W/m2
04:29 26.0 °C 21.0 °C 1009.6 hPa North 4 km/h 8 km/h 75% 0.00 mm 0.00 W/m2
04:34 26.0 °C 21.0 °C 1009.7 hPa NNE 4 km/h 4 km/h 75% 0.00 mm 0.00 W/m2
04:39 26.0 °C 21.0 °C 1009.9 hPa North 4 km/h 8 km/h 75% 0.00 mm 0.00 W/m2
04:44 26.0 °C 21.0 °C 1009.9 hPa NNW 5 km/h 8 km/h 76% 0.00 mm 0.00 W/m2
04:49 26.0 °C 21.0 °C 1010.0 hPa North 5 km/h 8 km/h 76% 0.00 mm 0.00 W/m2
04:54 26.0 °C 21.0 °C 1010.0 hPa NW 6 km/h 8 km/h 77% 0.00 mm 0.00 W/m2
04:59 26.0 °C 21.0 °C 1010.0 hPa NW 4 km/h 8 km/h 77% 0.00 mm 0.00 W/m2
05:04 26.0 °C 22.0 °C 1010.0 hPa NNW 8 km/h 12 km/h 78% 0.00 mm 0.00 W/m2
05:09 26.0 °C 22.0 °C 1010.1 hPa NW 8 km/h 8 km/h 79% 0.00 mm 0.00 W/m2
05:14 26.0 °C 22.0 °C 1010.1 hPa NW 9 km/h 12 km/h 80% 0.00 mm 0.00 W/m2
05:19 25.0 °C 22.0 °C 1010.2 hPa NNW 9 km/h 12 km/h 80% 0.00 mm 0.00 W/m2
05:24 25.0 °C 22.0 °C 1010.3 hPa NNW 12 km/h 16 km/h 81% 0.00 mm 0.00 W/m2
05:29 25.0 °C 22.0 °C 1010.3 hPa North 10 km/h 12 km/h 81% 0.00 mm 0.00 W/m2
05:34 25.0 °C 22.0 °C 1010.3 hPa North 10 km/h 12 km/h 81% 0.00 mm 0.00 W/m2
05:39 25.0 °C 22.0 °C 1010.4 hPa North 12 km/h 16 km/h 82% 0.00 mm 0.00 W/m2
05:44 25.0 °C 22.0 °C 1010.4 hPa NNW 8 km/h 12 km/h 82% 0.00 mm 0.00 W/m2
05:49 25.0 °C 22.0 °C 1010.5 hPa North 6 km/h 8 km/h 82% 0.00 mm 0.00 W/m2
05:54 25.0 °C 22.0 °C 1010.7 hPa NNW 7 km/h 8 km/h 82% 0.00 mm 0.00 W/m2
05:59 25.0 °C 22.0 °C 1010.8 hPa NNW 5 km/h 8 km/h 82% 0.00 mm 0.00 W/m2
06:04 25.0 °C 22.0 °C 1010.7 hPa North 4 km/h 8 km/h 83% 0.00 mm 0.00 W/m2
06:09 25.0 °C 21.0 °C 1010.8 hPa North 5 km/h 8 km/h 82% 0.00 mm 0.00 W/m2
06:14 25.0 °C 21.0 °C 1010.8 hPa North 4 km/h 4 km/h 82% 0.00 mm 2.48 W/m2
06:19 25.0 °C 21.0 °C 1011.0 hPa North 4 km/h 8 km/h 82% 0.00 mm 6.50 W/m2
06:24 25.0 °C 22.0 °C 1011.0 hPa North 5 km/h 8 km/h 82% 0.00 mm 11.20 W/m2
06:29 25.0 °C 22.0 °C 1010.9 hPa North 9 km/h 12 km/h 82% 0.00 mm 18.36 W/m2
06:34 25.0 °C 22.0 °C 1011.1 hPa NNW 5 km/h 8 km/h 82% 0.00 mm 23.70 W/m2
06:39 25.0 °C 22.0 °C 1011.3 hPa North 9 km/h 12 km/h 82% 0.00 mm 28.46 W/m2
06:44 25.0 °C 22.0 °C 1011.5 hPa North 10 km/h 12 km/h 82% 0.00 mm 32.84 W/m2
06:49 25.0 °C 22.0 °C 1011.5 hPa North 9 km/h 12 km/h 82% 0.00 mm 37.34 W/m2
06:54 25.0 °C 22.0 °C 1011.4 hPa North 7 km/h 8 km/h 82% 0.00 mm 41.72 W/m2
06:59 25.0 °C 22.0 °C 1011.5 hPa NNW 6 km/h 8 km/h 81% 0.00 mm 69.90 W/m2
07:04 26.0 °C 22.0 °C 1011.6 hPa NNW 7 km/h 8 km/h 81% 0.00 mm 86.10 W/m2
07:09 26.0 °C 22.0 °C 1011.6 hPa North 8 km/h 8 km/h 80% 0.00 mm 92.51 W/m2
07:14 26.0 °C 22.0 °C 1011.8 hPa NNE 9 km/h 12 km/h 80% 0.00 mm 97.33 W/m2
07:19 26.0 °C 22.0 °C 1011.8 hPa North 5 km/h 8 km/h 80% 0.00 mm 107.28 W/m2
07:24 26.0 °C 22.0 °C 1011.8 hPa North 6 km/h 12 km/h 79% 0.00 mm 115.43 W/m2
07:29 26.0 °C 22.0 °C 1011.8 hPa North 10 km/h 12 km/h 78% 0.00 mm 125.41 W/m2
07:34 26.0 °C 22.0 °C 1011.9 hPa North 8 km/h 12 km/h 78% 0.00 mm 137.48 W/m2
07:39 27.0 °C 22.0 °C 1012.0 hPa North 9 km/h 12 km/h 77% 0.00 mm 149.44 W/m2
07:44 27.0 °C 22.0 °C 1012.0 hPa North 9 km/h 12 km/h 77% 0.00 mm 156.78 W/m2
07:49 27.0 °C 22.0 °C 1012.0 hPa NNW 9 km/h 12 km/h 76% 0.00 mm 167.72 W/m2
07:54 27.0 °C 22.0 °C 1012.1 hPa North 11 km/h 12 km/h 76% 0.00 mm 179.39 W/m2
07:59 27.0 °C 22.0 °C 1012.2 hPa NNE 13 km/h 16 km/h 75% 0.00 mm 187.81 W/m2
08:04 28.0 °C 23.0 °C 1012.3 hPa NW 13 km/h 16 km/h 75% 0.00 mm 204.86 W/m2
08:09 27.0 °C 23.0 °C 1012.3 hPa NNW 14 km/h 16 km/h 75% 0.00 mm 212.18 W/m2
08:14 28.0 °C 23.0 °C 1012.1 hPa North 10 km/h 12 km/h 74% 0.00 mm 217.73 W/m2
08:19 28.0 °C 23.0 °C 1012.1 hPa NNW 14 km/h 20 km/h 74% 0.00 mm 220.13 W/m2
08:24 28.0 °C 23.0 °C 1012.1 hPa NW 12 km/h 16 km/h 74% 0.00 mm 225.29 W/m2
08:29 28.0 °C 23.0 °C 1012.3 hPa North 10 km/h 12 km/h 74% 0.00 mm 237.40 W/m2
08:34 28.0 °C 23.0 °C 1012.4 hPa NW 10 km/h 12 km/h 73% 0.00 mm 244.77 W/m2
08:39 29.0 °C 23.0 °C 1012.4 hPa NW 15 km/h 16 km/h 73% 0.00 mm 245.57 W/m2
08:44 28.0 °C 23.0 °C 1012.3 hPa NW 14 km/h 16 km/h 74% 0.00 mm 265.61 W/m2
08:49 28.0 °C 23.0 °C 1012.3 hPa NW 13 km/h 16 km/h 73% 0.00 mm 266.76 W/m2
08:54 29.0 °C 23.0 °C 1012.3 hPa NW 10 km/h 12 km/h 72% 0.00 mm 275.30 W/m2
08:59 29.0 °C 23.0 °C 1012.4 hPa NNW 8 km/h 12 km/h 71% 0.00 mm 284.89 W/m2
09:04 30.0 °C 23.0 °C 1012.4 hPa West 5 km/h 8 km/h 70% 0.00 mm 291.52 W/m2
09:09 30.0 °C 23.0 °C 1012.4 hPa NW 10 km/h 12 km/h 68% 0.00 mm 306.64 W/m2
09:14 30.0 °C 23.0 °C 1012.4 hPa WNW 12 km/h 16 km/h 70% 0.00 mm 309.58 W/m2
09:19 29.0 °C 23.0 °C 1012.4 hPa NW 15 km/h 16 km/h 71% 0.00 mm 324.28 W/m2
09:24 30.0 °C 23.0 °C 1012.4 hPa NNW 10 km/h 12 km/h 70% 0.00 mm 334.49 W/m2
09:29 30.0 °C 24.0 °C 1012.4 hPa NW 12 km/h 16 km/h 69% 0.00 mm 335.51 W/m2
09:34 30.0 °C 23.0 °C 1012.4 hPa NW 10 km/h 12 km/h 70% 0.00 mm 338.72 W/m2
09:39 30.0 °C 24.0 °C 1012.5 hPa WNW 15 km/h 16 km/h 68% 0.00 mm 336.74 W/m2
09:44 31.0 °C 24.0 °C 1012.5 hPa NW 13 km/h 16 km/h 68% 0.00 mm 341.80 W/m2
09:49 30.0 °C 24.0 °C 1012.4 hPa NW 14 km/h 16 km/h 69% 0.00 mm 341.00 W/m2
09:54 30.0 °C 24.0 °C 1012.4 hPa NW 15 km/h 20 km/h 69% 0.00 mm 340.11 W/m2
09:59 31.0 °C 24.0 °C 1012.5 hPa SSW 10 km/h 12 km/h 68% 0.00 mm 349.02 W/m2
10:04 30.0 °C 24.0 °C 1012.4 hPa NNW 14 km/h 16 km/h 69% 0.00 mm 336.91 W/m2
10:09 30.0 °C 24.0 °C 1012.4 hPa NW 14 km/h 16 km/h 69% 0.00 mm 345.37 W/m2
10:14 30.0 °C 24.0 °C 1012.3 hPa NW 14 km/h 16 km/h 69% 0.00 mm 345.35 W/m2
10:19 31.0 °C 24.0 °C 1012.3 hPa NW 10 km/h 16 km/h 69% 0.00 mm 362.45 W/m2
10:24 31.0 °C 24.0 °C 1012.2 hPa West 18 km/h 20 km/h 68% 0.00 mm 375.64 W/m2
10:29 31.0 °C 24.0 °C 1012.2 hPa NW 14 km/h 16 km/h 67% 0.00 mm 381.68 W/m2
10:34 31.0 °C 24.0 °C 1012.1 hPa South 16 km/h 20 km/h 67% 0.00 mm 395.85 W/m2
10:39 32.0 °C 24.0 °C 1012.1 hPa South 10 km/h 12 km/h 65% 0.00 mm 411.04 W/m2
10:44 32.0 °C 24.0 °C 1012.0 hPa South 10 km/h 16 km/h 65% 0.00 mm 407.18 W/m2
10:49 32.0 °C 24.0 °C 1011.8 hPa SSW 13 km/h 16 km/h 65% 0.00 mm 403.12 W/m2
10:54 32.0 °C 25.0 °C 1011.8 hPa WSW 12 km/h 16 km/h 64% 0.00 mm 402.36 W/m2
10:59 32.0 °C 24.0 °C 1011.8 hPa West 10 km/h 16 km/h 64% 0.00 mm 419.00 W/m2
11:04 32.0 °C 24.0 °C 1011.7 hPa WSW 10 km/h 12 km/h 65% 0.00 mm 415.60 W/m2
11:09 32.0 °C 25.0 °C 1011.7 hPa SSE 9 km/h 12 km/h 66% 0.00 mm 398.05 W/m2
11:14 32.0 °C 24.0 °C 1011.5 hPa South 12 km/h 20 km/h 64% 0.00 mm 410.68 W/m2
11:19 32.0 °C 24.0 °C 1011.5 hPa SSW 14 km/h 16 km/h 64% 0.00 mm 408.84 W/m2
11:24 32.0 °C 24.0 °C 1011.4 hPa South 15 km/h 20 km/h 66% 0.00 mm 411.83 W/m2
11:29 32.0 °C 24.0 °C 1011.4 hPa South 13 km/h 20 km/h 66% 0.00 mm 402.07 W/m2
11:34 32.0 °C 24.0 °C 1011.4 hPa South 10 km/h 12 km/h 65% 0.00 mm 399.50 W/m2
11:39 32.0 °C 25.0 °C 1011.2 hPa South 11 km/h 16 km/h 65% 0.00 mm 401.75 W/m2
11:44 32.0 °C 24.0 °C 1011.2 hPa South 15 km/h 20 km/h 66% 0.00 mm 407.84 W/m2
11:49 31.0 °C 24.0 °C 1011.0 hPa SSW 15 km/h 20 km/h 67% 0.00 mm 406.93 W/m2
11:54 31.0 °C 24.0 °C 1011.0 hPa SSW 13 km/h 16 km/h 68% 0.00 mm 413.71 W/m2
11:59 32.0 °C 24.0 °C 1010.9 hPa South 12 km/h 16 km/h 68% 0.00 mm 411.78 W/m2
12:04 31.0 °C 24.0 °C 1010.8 hPa SW 12 km/h 16 km/h 66% 0.00 mm 415.94 W/m2
12:09 32.0 °C 24.0 °C 1010.7 hPa West 7 km/h 12 km/h 65% 0.00 mm 417.41 W/m2
12:14 32.0 °C 24.0 °C 1010.6 hPa South 12 km/h 16 km/h 64% 0.00 mm 418.95 W/m2
12:19 32.0 °C 25.0 °C 1010.6 hPa SW 8 km/h 16 km/h 64% 0.00 mm 420.44 W/m2
12:24 32.0 °C 25.0 °C 1010.5 hPa West 8 km/h 12 km/h 64% 0.00 mm 438.69 W/m2
12:29 33.0 °C 25.0 °C 1010.2 hPa South 12 km/h 16 km/h 64% 0.00 mm 453.50 W/m2
12:34 33.0 °C 25.0 °C 1010.3 hPa South 12 km/h 16 km/h 63% 0.00 mm 442.34 W/m2
12:39 33.0 °C 24.0 °C 1010.2 hPa South 14 km/h 16 km/h 63% 0.00 mm 432.50 W/m2
12:44 32.0 °C 24.0 °C 1010.0 hPa South 13 km/h 16 km/h 65% 0.00 mm 420.32 W/m2
12:49 32.0 °C 25.0 °C 1009.9 hPa SSW 17 km/h 24 km/h 65% 0.00 mm 418.02 W/m2
12:54 32.0 °C 25.0 °C 1009.9 hPa South 13 km/h 16 km/h 66% 0.00 mm 414.15 W/m2
12:59 33.0 °C 25.0 °C 1009.8 hPa South 8 km/h 12 km/h 65% 0.00 mm 421.93 W/m2
13:04 33.0 °C 25.0 °C 1009.7 hPa South 8 km/h 12 km/h 64% 0.00 mm 427.12 W/m2
13:09 33.0 °C 25.0 °C 1009.5 hPa SW 9 km/h 12 km/h 63% 0.00 mm 437.15 W/m2
13:14 33.0 °C 25.0 °C 1009.4 hPa South 14 km/h 16 km/h 63% 0.00 mm 435.95 W/m2
13:19 33.0 °C 25.0 °C 1009.2 hPa South 14 km/h 16 km/h 63% 0.00 mm 435.59 W/m2
13:24 33.0 °C 25.0 °C 1009.2 hPa South 14 km/h 16 km/h 64% 0.00 mm 434.09 W/m2
13:29 33.0 °C 25.0 °C 1009.0 hPa South 13 km/h 16 km/h 63% 0.00 mm 432.43 W/m2
13:34 33.0 °C 25.0 °C 1009.0 hPa WSW 10 km/h 16 km/h 62% 0.00 mm 429.42 W/m2
13:39 33.0 °C 25.0 °C 1008.9 hPa South 10 km/h 12 km/h 61% 0.00 mm 435.59 W/m2
13:44 34.0 °C 25.0 °C 1008.8 hPa SSW 6 km/h 12 km/h 61% 0.00 mm 423.89 W/m2
13:49 34.0 °C 25.0 °C 1008.6 hPa South 8 km/h 12 km/h 60% 0.00 mm 430.03 W/m2
13:54 34.0 °C 25.0 °C 1008.4 hPa SSW 11 km/h 12 km/h 61% 0.00 mm 430.74 W/m2
13:59 34.0 °C 25.0 °C 1008.4 hPa SSE 9 km/h 12 km/h 61% 0.00 mm 434.58 W/m2
14:04 34.0 °C 25.0 °C 1008.2 hPa WSW 10 km/h 16 km/h 62% 0.00 mm 437.62 W/m2
14:09 34.0 °C 25.0 °C 1008.1 hPa South 7 km/h 8 km/h 61% 0.00 mm 437.42 W/m2
14:14 34.0 °C 25.0 °C 1008.0 hPa SW 10 km/h 12 km/h 61% 0.00 mm 431.62 W/m2
14:19 34.0 °C 26.0 °C 1008.0 hPa South 15 km/h 20 km/h 65% 0.00 mm 435.66 W/m2
14:24 34.0 °C 26.0 °C 1007.9 hPa SW 12 km/h 16 km/h 64% 0.00 mm 446.62 W/m2
14:29 34.0 °C 26.0 °C 1007.9 hPa WSW 9 km/h 12 km/h 64% 0.00 mm 433.26 W/m2
14:34 34.0 °C 25.0 °C 1007.9 hPa West 11 km/h 16 km/h 64% 0.00 mm 397.10 W/m2
14:39 33.0 °C 25.0 °C 1007.7 hPa WNW 13 km/h 16 km/h 66% 0.00 mm 403.39 W/m2
14:44 33.0 °C 25.0 °C 1007.8 hPa WNW 13 km/h 16 km/h 66% 0.00 mm 383.79 W/m2
14:49 33.0 °C 25.0 °C 1007.5 hPa SSW 13 km/h 16 km/h 66% 0.00 mm 377.28 W/m2
14:54 33.0 °C 25.0 °C 1007.6 hPa West 10 km/h 12 km/h 66% 0.00 mm 376.82 W/m2
14:59 33.0 °C 25.0 °C 1007.3 hPa South 6 km/h 8 km/h 64% 0.00 mm 401.31 W/m2
15:04 34.0 °C 26.0 °C 1007.4 hPa SSW 8 km/h 12 km/h 62% 0.00 mm 401.11 W/m2
15:09 34.0 °C 25.0 °C 1007.4 hPa SW 12 km/h 16 km/h 62% 0.00 mm 410.58 W/m2
15:14 34.0 °C 26.0 °C 1007.4 hPa South 8 km/h 12 km/h 62% 0.00 mm 428.27 W/m2
15:19 34.0 °C 26.0 °C 1007.3 hPa SW 9 km/h 12 km/h 61% 0.00 mm 408.84 W/m2
15:24 34.0 °C 26.0 °C 1007.2 hPa SE 5 km/h 8 km/h 62% 0.00 mm 399.25 W/m2
15:29 35.0 °C 26.0 °C 1007.2 hPa SW 6 km/h 12 km/h 61% 0.00 mm 401.31 W/m2
15:34 35.0 °C 26.0 °C 1007.1 hPa SSW 6 km/h 12 km/h 60% 0.00 mm 383.52 W/m2
15:39 34.0 °C 26.0 °C 1007.0 hPa West 13 km/h 16 km/h 62% 0.00 mm 375.91 W/m2
15:44 34.0 °C 26.0 °C 1007.2 hPa WNW 14 km/h 16 km/h 63% 0.00 mm 372.07 W/m2
15:49 34.0 °C 26.0 °C 1007.2 hPa SW 9 km/h 12 km/h 62% 0.00 mm 368.57 W/m2
15:54 34.0 °C 26.0 °C 1007.1 hPa WNW 17 km/h 20 km/h 64% 0.00 mm 369.72 W/m2
15:59 34.0 °C 26.0 °C 1007.1 hPa WNW 11 km/h 12 km/h 63% 0.00 mm 363.51 W/m2
16:04 34.0 °C 26.0 °C 1007.1 hPa West 9 km/h 12 km/h 62% 0.00 mm 361.87 W/m2
16:09 34.0 °C 26.0 °C 1007.2 hPa WNW 14 km/h 16 km/h 64% 0.00 mm 353.33 W/m2
16:14 34.0 °C 26.0 °C 1007.2 hPa NW 13 km/h 16 km/h 64% 0.00 mm 335.44 W/m2
16:19 34.0 °C 26.0 °C 1007.1 hPa WSW 10 km/h 12 km/h 63% 0.00 mm 315.26 W/m2
16:24 35.0 °C 26.0 °C 1007.4 hPa West 6 km/h 8 km/h 62% 0.00 mm 312.56 W/m2
16:29 35.0 °C 26.0 °C 1007.3 hPa South 6 km/h 8 km/h 62% 0.00 mm 292.89 W/m2
16:34 35.0 °C 26.0 °C 1007.3 hPa SSW 10 km/h 12 km/h 63% 0.00 mm 293.06 W/m2
16:39 34.0 °C 26.0 °C 1007.3 hPa NW 11 km/h 12 km/h 64% 0.00 mm 277.82 W/m2
16:44 33.0 °C 26.0 °C 1007.4 hPa NW 12 km/h 12 km/h 66% 0.00 mm 275.72 W/m2
16:49 34.0 °C 26.0 °C 1007.4 hPa SW 9 km/h 12 km/h 66% 0.00 mm 273.78 W/m2
16:54 34.0 °C 26.0 °C 1007.3 hPa South 8 km/h 12 km/h 65% 0.00 mm 241.68 W/m2
16:59 34.0 °C 26.0 °C 1007.4 hPa West 5 km/h 8 km/h 65% 0.00 mm 232.43 W/m2
17:04 34.0 °C 26.0 °C 1007.5 hPa SW 8 km/h 8 km/h 65% 0.00 mm 218.76 W/m2
17:09 33.0 °C 26.0 °C 1007.5 hPa South 6 km/h 8 km/h 66% 0.00 mm 182.94 W/m2
17:14 33.0 °C 26.0 °C 1007.6 hPa ESE 3 km/h 4 km/h 66% 0.00 mm 91.63 W/m2
17:19 33.0 °C 26.0 °C 1007.6 hPa South 8 km/h 12 km/h 68% 0.00 mm 83.87 W/m2
17:24 32.0 °C 26.0 °C 1007.6 hPa South 6 km/h 8 km/h 68% 0.00 mm 80.52 W/m2
17:29 32.0 °C 26.0 °C 1007.6 hPa SSW 9 km/h 12 km/h 69% 0.00 mm 61.34 W/m2
17:34 32.0 °C 26.0 °C 1007.7 hPa South 6 km/h 8 km/h 70% 0.00 mm 44.81 W/m2
17:39 32.0 °C 26.0 °C 1007.7 hPa South 6 km/h 8 km/h 70% 0.00 mm 38.86 W/m2
17:44 32.0 °C 26.0 °C 1007.7 hPa South 8 km/h 12 km/h 70% 0.00 mm 33.83 W/m2
17:49 32.0 °C 25.0 °C 1007.9 hPa South 10 km/h 12 km/h 71% 0.00 mm 27.85 W/m2
17:54 31.0 °C 26.0 °C 1007.7 hPa SSW 9 km/h 12 km/h 72% 0.00 mm 20.05 W/m2
17:59 31.0 °C 25.0 °C 1007.9 hPa South 12 km/h 16 km/h 72% 0.00 mm 11.99 W/m2
18:04 31.0 °C 26.0 °C 1007.9 hPa South 10 km/h 12 km/h 74% 0.00 mm 5.58 W/m2
18:09 31.0 °C 26.0 °C 1008.1 hPa South 12 km/h 16 km/h 74% 0.00 mm 1.90 W/m2
18:14 30.0 °C 25.0 °C 1008.2 hPa South 11 km/h 16 km/h 75% 0.00 mm 0.00 W/m2
18:19 30.0 °C 26.0 °C 1008.3 hPa South 9 km/h 12 km/h 77% 0.00 mm 0.00 W/m2
18:24 30.0 °C 26.0 °C 1008.4 hPa South 10 km/h 12 km/h 79% 0.00 mm 0.00 W/m2
18:29 30.0 °C 26.0 °C 1008.4 hPa SSE 16 km/h 20 km/h 82% 0.00 mm 0.00 W/m2
18:34 30.0 °C 26.0 °C 1008.4 hPa SSE 15 km/h 16 km/h 81% 0.00 mm 0.00 W/m2
18:39 30.0 °C 26.0 °C 1008.4 hPa South 11 km/h 16 km/h 80% 0.00 mm 0.00 W/m2
18:44 30.0 °C 26.0 °C 1008.4 hPa South 14 km/h 16 km/h 79% 0.00 mm 0.00 W/m2
18:49 30.0 °C 26.0 °C 1008.4 hPa SSE 10 km/h 12 km/h 79% 0.00 mm 0.00 W/m2
18:54 30.0 °C 26.0 °C 1008.6 hPa SSE 10 km/h 12 km/h 79% 0.00 mm 0.00 W/m2
18:59 30.0 °C 26.0 °C 1008.6 hPa SSE 13 km/h 16 km/h 81% 0.00 mm 0.00 W/m2
19:04 29.0 °C 26.0 °C 1008.7 hPa SSE 14 km/h 16 km/h 82% 0.00 mm 0.00 W/m2
19:09 29.0 °C 26.0 °C 1008.9 hPa SSE 14 km/h 20 km/h 82% 0.00 mm 0.00 W/m2
19:14 29.0 °C 26.0 °C 1008.8 hPa SSE 15 km/h 16 km/h 83% 0.00 mm 0.00 W/m2
19:19 29.0 °C 26.0 °C 1008.9 hPa SSE 15 km/h 20 km/h 83% 0.00 mm 0.00 W/m2
19:24 29.0 °C 26.0 °C 1008.9 hPa South 6 km/h 8 km/h 83% 0.00 mm 0.00 W/m2
19:29 29.0 °C 26.0 °C 1008.9 hPa South 9 km/h 12 km/h 82% 0.00 mm 0.00 W/m2
19:34 29.0 °C 26.0 °C 1008.9 hPa SSE 11 km/h 12 km/h 82% 0.00 mm 0.00 W/m2
19:39 29.0 °C 26.0 °C 1008.8 hPa SSE 12 km/h 16 km/h 82% 0.00 mm 0.00 W/m2
19:44 30.0 °C 26.0 °C 1009.0 hPa SSE 6 km/h 8 km/h 82% 0.00 mm 0.00 W/m2
19:49 30.0 °C 26.0 °C 1008.9 hPa South 6 km/h 8 km/h 81% 0.00 mm 0.00 W/m2
19:54 29.0 °C 26.0 °C 1009.0 hPa SSE 14 km/h 16 km/h 81% 0.00 mm 0.00 W/m2
19:59 29.0 °C 26.0 °C 1009.1 hPa SSE 8 km/h 12 km/h 81% 0.00 mm 0.00 W/m2
20:04 30.0 °C 26.0 °C 1009.1 hPa SSE 10 km/h 12 km/h 81% 0.00 mm 0.00 W/m2
20:09 30.0 °C 26.0 °C 1009.2 hPa SSE 8 km/h 8 km/h 80% 0.00 mm 0.00 W/m2
20:14 30.0 °C 26.0 °C 1009.2 hPa SSE 9 km/h 12 km/h 78% 0.00 mm 0.00 W/m2
20:19 30.0 °C 26.0 °C 1009.2 hPa SSE 11 km/h 16 km/h 78% 0.00 mm 0.00 W/m2
20:24 30.0 °C 26.0 °C 1009.4 hPa SE 9 km/h 12 km/h 78% 0.00 mm 0.00 W/m2
20:29 30.0 °C 25.0 °C 1009.5 hPa SE 9 km/h 12 km/h 77% 0.00 mm 0.00 W/m2
20:34 30.0 °C 25.0 °C 1009.4 hPa SSE 9 km/h 12 km/h 77% 0.00 mm 0.00 W/m2
20:39 30.0 °C 25.0 °C 1009.5 hPa SSE 9 km/h 12 km/h 77% 0.00 mm 0.00 W/m2
20:44 30.0 °C 25.0 °C 1009.5 hPa SSE 9 km/h 12 km/h 77% 0.00 mm 0.00 W/m2
20:49 30.0 °C 25.0 °C 1009.4 hPa SE 8 km/h 8 km/h 77% 0.00 mm 0.00 W/m2
20:54 30.0 °C 25.0 °C 1009.6 hPa SE 9 km/h 12 km/h 76% 0.00 mm 0.00 W/m2
20:59 30.0 °C 25.0 °C 1009.5 hPa SE 9 km/h 12 km/h 76% 0.00 mm 0.00 W/m2
21:04 30.0 °C 25.0 °C 1009.5 hPa SE 9 km/h 12 km/h 76% 0.00 mm 0.00 W/m2
21:09 30.0 °C 25.0 °C 1009.5 hPa SE 8 km/h 12 km/h 77% 0.00 mm 0.00 W/m2
21:14 30.0 °C 25.0 °C 1009.5 hPa SE 13 km/h 16 km/h 77% 0.00 mm 0.00 W/m2
21:19 29.0 °C 25.0 °C 1009.6 hPa SE 12 km/h 12 km/h 77% 0.00 mm 0.00 W/m2
21:24 29.0 °C 25.0 °C 1009.6 hPa SE 8 km/h 12 km/h 77% 0.00 mm 0.00 W/m2
21:29 29.0 °C 25.0 °C 1009.5 hPa SSE 11 km/h 12 km/h 78% 0.00 mm 0.00 W/m2
21:34 29.0 °C 25.0 °C 1009.5 hPa SSE 14 km/h 16 km/h 78% 0.00 mm 0.00 W/m2
21:39 29.0 °C 25.0 °C 1009.5 hPa SSE 13 km/h 16 km/h 78% 0.00 mm 0.00 W/m2
21:44 29.0 °C 25.0 °C 1009.4 hPa SE 11 km/h 12 km/h 78% 0.00 mm 0.00 W/m2
21:49 29.0 °C 25.0 °C 1009.4 hPa SE 10 km/h 12 km/h 78% 0.00 mm 0.00 W/m2
21:54 29.0 °C 25.0 °C 1009.3 hPa SE 12 km/h 12 km/h 78% 0.00 mm 0.00 W/m2
21:59 29.0 °C 25.0 °C 1009.5 hPa SE 10 km/h 12 km/h 78% 0.00 mm 0.00 W/m2
22:04 29.0 °C 25.0 °C 1009.6 hPa SE 9 km/h 12 km/h 78% 0.00 mm 0.00 W/m2
22:09 29.0 °C 25.0 °C 1009.5 hPa SE 9 km/h 12 km/h 77% 0.00 mm 0.00 W/m2
22:14 29.0 °C 25.0 °C 1009.5 hPa ESE 8 km/h 12 km/h 77% 0.00 mm 0.00 W/m2
22:19 29.0 °C 25.0 °C 1009.5 hPa SE 10 km/h 12 km/h 78% 0.00 mm 0.00 W/m2
22:24 29.0 °C 25.0 °C 1009.5 hPa SE 9 km/h 12 km/h 78% 0.00 mm 0.00 W/m2
22:29 29.0 °C 25.0 °C 1009.6 hPa SE 5 km/h 8 km/h 78% 0.00 mm 0.00 W/m2
22:34 29.0 °C 25.0 °C 1009.7 hPa SE 5 km/h 8 km/h 79% 0.00 mm 0.00 W/m2
22:39 29.0 °C 25.0 °C 1009.8 hPa SE 7 km/h 8 km/h 79% 0.00 mm 0.00 W/m2
22:44 29.0 °C 25.0 °C 1009.7 hPa SE 11 km/h 12 km/h 79% 0.00 mm 0.00 W/m2
22:49 29.0 °C 25.0 °C 1009.7 hPa SE 10 km/h 12 km/h 80% 0.00 mm 0.00 W/m2
22:54 29.0 °C 25.0 °C 1009.8 hPa SE 8 km/h 12 km/h 80% 0.00 mm 0.00 W/m2
22:59 29.0 °C 25.0 °C 1009.8 hPa East 4 km/h 4 km/h 80% 0.00 mm 0.00 W/m2
23:04 29.0 °C 25.0 °C 1009.8 hPa ESE 8 km/h 12 km/h 79% 0.00 mm 0.00 W/m2
23:09 29.0 °C 25.0 °C 1009.8 hPa ESE 8 km/h 12 km/h 79% 0.00 mm 0.00 W/m2
23:14 29.0 °C 25.0 °C 1009.7 hPa ENE 5 km/h 8 km/h 80% 0.00 mm 0.00 W/m2
23:19 29.0 °C 25.0 °C 1009.7 hPa SW 3 km/h 4 km/h 80% 0.00 mm 0.00 W/m2
23:24 29.0 °C 25.0 °C 1009.7 hPa ESE 5 km/h 8 km/h 80% 0.00 mm 0.00 W/m2
23:29 29.0 °C 25.0 °C 1009.7 hPa ESE 5 km/h 8 km/h 80% 0.00 mm 0.00 W/m2
23:34 29.0 °C 25.0 °C 1009.7 hPa NE 1 km/h 4 km/h 80% 0.00 mm 0.00 W/m2
23:39 29.0 °C 25.0 °C 1009.9 hPa ESE 2 km/h 4 km/h 80% 0.00 mm 0.00 W/m2
23:44 29.0 °C 25.0 °C 1009.9 hPa ESE 6 km/h 8 km/h 81% 0.00 mm 0.00 W/m2
23:49 29.0 °C 25.0 °C 1009.7 hPa ESE 4 km/h 4 km/h 81% 0.00 mm 0.00 W/m2
23:54 29.0 °C 25.0 °C 1009.7 hPa SE 4 km/h 4 km/h 81% 0.00 mm 0.00 W/m2
23:59 29.0 °C 25.0 °C 1009.7 hPa ESE 5 km/h 8 km/h 81% 0.00 mm 0.00 W/m2
PIMOHWEATHER Philippines
Compliments of Weather Underground - 2 mb